Change the Weather History Date:

Tuesday, March 4, 2014

  Actual Average Record
Temperature  
Mean Temperature 6 °F -  
Max Temperature 15 °F 24 °F 39 °F (2005)
Min Temperature -2 °F 8 °F -16 °F (2015)
Degree Days  
Heating Degree Days 58    
Moisture  
Dew Point -1 °F    
Average Humidity 72    
Maximum Humidity 85    
Minimum Humidity 53    
Precipitation  
Precipitation 0.00 in - - ()
Sea Level Pressure  
Sea Level Pressure 30.18 in    
Wind  
Wind Speed 2 mph (ENE)    
Max Wind Speed 9 mph    
Max Gust Speed -    
Visibility 10 miles    
Events Snow    
Averages and records for this station are not official NWS values.
T = Trace of Precipitation, MM = Missing Value Source: NWS Daily Summary

Daily Weather History Graph

Daily Weather History Graph

Search for Another Location

Airport or City:

Trip Planner

Search our weather history database for the weather conditions in past years. The results will help you decide how hot, cold, wet, or windy it might be!

Date:

Astronomy

Mar. 04, 2014 Rise Set
Actual Time 6:52 AM CST 6:09 PM CST
Civil Twilight 6:22 AM CST 6:39 PM CST
Nautical Twilight 5:48 AM CST 7:14 PM CST
Astronomical Twilight 5:13 AM CST 7:49 PM CST
Moon 8:25 AM CST (3/4) 10:34 PM CST (3/4)
Length of Visible Light 12h 17m
Length of Day
11h 16m
Waxing Crescent, 15% of the Moon is Illuminated
Mar 4
Waxing Crescent
Mar 8
First Quarter
Mar 16
Full
Mar 23
Last Quarter
Mar 30
New

Hourly Weather History & Observations

Time (CST) Temp. Windchill Dew Point Humidity Pressure Visibility Wind Dir Wind Speed Gust Speed Precip Events Conditions
12:14 AM 3.2 °F - -2.2 °F 78% 30.16 in 10.0 mi Calm Calm - N/A   Overcast
12:33 AM 3.2 °F - -2.2 °F 78% 30.16 in 10.0 mi Calm Calm - N/A   Overcast
12:53 AM 3.2 °F - -2.2 °F 78% 30.16 in 10.0 mi Calm Calm - N/A   Overcast
1:14 AM 3.2 °F - -2.2 °F 78% 30.16 in 10.0 mi Calm Calm - N/A   Overcast
1:33 AM 3.2 °F - -2.2 °F 78% 30.15 in 10.0 mi Calm Calm - N/A   Overcast
1:53 AM 3.2 °F -4.2 °F -2.2 °F 78% 30.15 in 10.0 mi East 3.5 mph - N/A   Overcast
2:14 AM 3.2 °F - -0.4 °F 85% 30.15 in 10.0 mi Calm Calm - N/A   Overcast
2:33 AM 3.2 °F - -0.4 °F 85% 30.15 in 4.0 mi Calm Calm - N/A Snow Light Snow
2:54 AM 3.2 °F - -0.4 °F 85% 30.14 in 7.0 mi Calm Calm - N/A Snow Light Snow
3:13 AM 3.2 °F -4.2 °F -0.4 °F 85% 30.13 in 10.0 mi ESE 3.5 mph - N/A   Overcast
3:33 AM 3.2 °F - -0.4 °F 85% 30.13 in 10.0 mi Calm Calm - N/A   Overcast
3:54 AM 3.2 °F - -0.4 °F 85% 30.13 in 10.0 mi Calm Calm - N/A   Overcast
4:13 AM 3.2 °F - -0.4 °F 85% 30.14 in 10.0 mi Calm Calm - N/A   Overcast
4:33 AM 3.2 °F - -0.4 °F 85% 30.14 in 10.0 mi Calm Calm - N/A   Overcast
4:54 AM 3.2 °F - -0.4 °F 85% 30.14 in 10.0 mi Calm Calm - N/A   Overcast
5:13 AM 3.2 °F - -0.4 °F 85% 30.13 in 10.0 mi Calm Calm - N/A   Overcast
5:33 AM 3.2 °F - -0.4 °F 85% 30.13 in 10.0 mi Calm Calm - N/A   Overcast
5:53 AM 3.2 °F - -0.4 °F 85% 30.13 in 10.0 mi Calm Calm - N/A   Overcast
6:13 AM 3.2 °F - -0.4 °F 85% 30.15 in 10.0 mi Calm Calm - N/A   Overcast
6:33 AM 3.2 °F - -0.4 °F 85% 30.15 in 10.0 mi Calm Calm - N/A   Overcast
6:53 AM 3.2 °F - -0.4 °F 85% 30.15 in 10.0 mi Calm Calm - N/A   Overcast
7:13 AM 3.2 °F -4.2 °F -0.4 °F 85% 30.14 in 10.0 mi ENE 3.5 mph - N/A   Overcast
7:34 AM 3.2 °F -7.8 °F -0.4 °F 85% 30.15 in 10.0 mi NE 5.8 mph - N/A   Overcast
7:53 AM 3.2 °F -6.2 °F -0.4 °F 85% 30.15 in 10.0 mi NE 4.6 mph - N/A   Overcast
8:13 AM 3.2 °F - -0.4 °F 85% 30.15 in 10.0 mi Calm Calm - N/A   Overcast
8:34 AM 3.2 °F -4.2 °F -0.4 °F 85% 30.16 in 10.0 mi NE 3.5 mph - N/A   Overcast
8:53 AM 3.2 °F -6.2 °F -0.4 °F 85% 30.16 in 10.0 mi NE 4.6 mph - N/A   Overcast
9:13 AM 5.0 °F -6.9 °F -0.4 °F 78% 30.16 in 10.0 mi ENE 6.9 mph - N/A   Overcast
9:34 AM 5.0 °F -5.6 °F -0.4 °F 78% 30.17 in 10.0 mi NE 5.8 mph - N/A   Overcast
9:53 AM 6.8 °F -0.1 °F -0.4 °F 72% 30.17 in 10.0 mi ENE 3.5 mph - N/A   Overcast
10:13 AM 6.8 °F -0.1 °F -0.4 °F 72% 30.18 in 10.0 mi East 3.5 mph - N/A   Overcast
10:34 AM 6.8 °F -4.8 °F -0.4 °F 72% 30.17 in 10.0 mi East 6.9 mph - N/A   Overcast
10:53 AM 6.8 °F -3.5 °F -0.4 °F 72% 30.17 in 10.0 mi East 5.8 mph - N/A   Overcast
11:13 AM 8.6 °F 2.0 °F -0.4 °F 67% 30.17 in 10.0 mi ENE 3.5 mph - N/A   Overcast
11:34 AM 8.6 °F -1.3 °F -0.4 °F 67% 30.17 in 10.0 mi ESE 5.8 mph - N/A   Overcast
11:53 AM 8.6 °F 0.1 °F -0.4 °F 67% 30.17 in 10.0 mi East 4.6 mph - N/A   Overcast
12:14 PM 10.4 °F 2.2 °F -0.4 °F 62% 30.18 in 10.0 mi SE 4.6 mph - N/A   Mostly Cloudy
12:33 PM 10.4 °F 0.8 °F -0.4 °F 62% 30.18 in 10.0 mi SE 5.8 mph - N/A   Scattered Clouds
12:53 PM 12.2 °F 6.1 °F -0.4 °F 57% 30.17 in 10.0 mi ESE 3.5 mph - N/A   Clear
1:14 PM 12.2 °F 6.1 °F 1.4 °F 62% 30.16 in 10.0 mi ESE 3.5 mph - N/A   Clear
1:33 PM 12.2 °F -0.2 °F -0.4 °F 57% 30.15 in 10.0 mi NE 9.2 mph - N/A   Clear
1:53 PM 12.2 °F 1.7 °F -0.4 °F 57% 30.15 in 10.0 mi East 6.9 mph - N/A   Clear
2:14 PM 14.0 °F 5.1 °F 1.4 °F 57% 30.15 in 10.0 mi ENE 5.8 mph - N/A   Clear
2:33 PM 14.0 °F 3.9 °F 1.4 °F 57% 30.15 in 10.0 mi NE 6.9 mph - N/A   Clear
2:53 PM 14.0 °F 2.9 °F 1.4 °F 57% 30.14 in 10.0 mi NE 8.1 mph - N/A   Clear
3:14 PM 14.0 °F 2.9 °F 1.4 °F 57% 30.15 in 10.0 mi NE 8.1 mph - N/A   Clear
3:33 PM 15.8 °F 7.2 °F 1.4 °F 53% 30.15 in 10.0 mi ENE 5.8 mph - N/A   Clear
3:53 PM 15.8 °F 10.2 °F 1.4 °F 53% 30.15 in 10.0 mi East 3.5 mph - N/A   Clear
4:14 PM 15.8 °F 7.2 °F 1.4 °F 53% 30.16 in 10.0 mi ENE 5.8 mph - N/A   Clear
4:33 PM 14.0 °F 8.2 °F 1.4 °F 57% 30.16 in 10.0 mi East 3.5 mph - N/A   Clear
4:53 PM 14.0 °F 6.5 °F -0.4 °F 53% 30.17 in 10.0 mi East 4.6 mph - N/A   Clear
5:14 PM 14.0 °F 5.1 °F -0.4 °F 53% 30.17 in 10.0 mi ENE 5.8 mph - N/A   Clear
5:33 PM 12.2 °F 4.3 °F -0.4 °F 57% 30.17 in 10.0 mi East 4.6 mph - N/A   Clear
5:53 PM 12.2 °F - -0.4 °F 57% 30.19 in 10.0 mi Calm Calm - N/A   Clear
6:14 PM 10.4 °F - -0.4 °F 62% 30.19 in 10.0 mi Calm Calm - N/A   Clear
6:33 PM 10.4 °F - -0.4 °F 62% 30.20 in 10.0 mi Calm Calm - N/A   Clear
6:53 PM 8.6 °F - -0.4 °F 67% 30.21 in 10.0 mi Calm Calm - N/A   Clear
7:14 PM 8.6 °F - -2.2 °F 62% 30.22 in 10.0 mi Calm Calm - N/A   Clear
7:33 PM 6.8 °F - -2.2 °F 67% 30.22 in 10.0 mi Calm Calm - N/A   Clear
7:53 PM 3.2 °F - -4.0 °F 72% 30.23 in 10.0 mi Calm Calm - N/A   Clear
8:14 PM 1.4 °F - -4.0 °F 78% 30.24 in 10.0 mi Calm Calm - N/A   Clear
8:33 PM 1.4 °F - -4.0 °F 78% 30.24 in 10.0 mi Calm Calm - N/A   Clear
8:53 PM 1.4 °F - -4.0 °F 78% 30.25 in 10.0 mi Calm Calm - N/A   Clear
9:13 PM 1.4 °F - -4.0 °F 78% 30.25 in 10.0 mi Calm Calm - N/A   Clear
9:33 PM 8.6 °F - -0.4 °F 67% 30.26 in 10.0 mi Calm Calm - N/A   Clear
9:54 PM 6.8 °F - -0.4 °F 72% 30.26 in 10.0 mi Calm Calm - N/A   Clear
10:13 PM 6.8 °F - -0.4 °F 72% 30.26 in 10.0 mi Calm Calm - N/A   Clear
10:33 PM 5.0 °F -2.1 °F -2.2 °F 72% 30.26 in 10.0 mi NNE 3.5 mph - N/A   Clear
10:54 PM 3.2 °F - -2.2 °F 78% 30.27 in 10.0 mi Calm Calm - N/A   Clear
11:13 PM -2.2 °F - -7.6 °F 78% 30.27 in 10.0 mi Calm Calm - N/A   Clear
11:33 PM -0.4 °F - -5.8 °F 78% 30.28 in 10.0 mi Calm Calm - N/A   Clear
11:53 PM -2.2 °F - -7.6 °F 78% 30.28 in 10.0 mi Calm Calm - N/A   Clear